Погода в Смоленске

Хотите узнать прогноз погоды в Смоленске? Тогда Вам сюда: Погода в Смоленске

Поиск расширенной информации на нашем сайте:

Полезная информация:

Новости сайта



02.01.2020
Опубликован Долгосрочный прогноз погоды по городам России и ближнего зарубежья на январь 2020 года.
Карты: Прогноз на январь и февраль 2020 года, Сравнение прогнозируемой аномалии приземной температуры воздуха на январь 2020 года по разным моделям.




Погода в Смоленске - сегодня

Время (UTC), дата Ветер
(°,м/с) 
Видим.   Явления Облачность Т
(°С)
Тd
(°С)
f(%) Тe
(°С)
Pmin
(гПа)
dP
(гПа)
Po
(мм)
O2
(г/м3)
Тmin Tmax R s Состояние
почвы
21 22.09.20 230 (ЮЗ) 10 км    ясно 
+10 +8.8 92 +11  1017.5  0.3  741  287           
00 23.09.20 тихо ()   4000 м  дымка  ясно 
+7.8 +7.2 96 +8  1017.4  -0.3  741  289           
03 23.09.20 тихо ()   4000 м    ясно 
+6.7 +6.2 97 +7  1017.4  0.1  741  290  +6.7         
06 23.09.20 тихо ()   4000 м  дымка  ясно 
+12.5 +10.4 87 +14  1017  0.3  741  284  +6.2        влажная 
09 23.09.20 200 (Ю) 10 км    ясно 
+21 +11.2 53 +24  1016  0.1  741  275           
12 23.09.20 210 (ЮЗ) 20000 м    ясно 
+23.3 +8.6 39 +23  1015.1  -0.7  741  274           
15 23.09.20 180 (Ю) 20000 м    ясно 
+18.9 +10.6 59 +22  1014.7  -0.8  740  277           
18 23.09.20 тихо ()   10 км    ясно 
+11.3 +9.5 89 +12  1015.7  0.2  740  285    +23.6       
21 23.09.20 тихо ()   4000 м  дымка  ясно 
+9.1 +8.2 94 +9  1016.3  0.3  740  287           
00 24.09.20 110 (В) 4000 м  дымка  ясно 
+7.8 +7 95 +9  1016.6  0.2  741  289           
03 24.09.20 120 (ЮВ) 4000 м  дымка  4/0 верхняя 
[Ci fib]
+6.4 +5.9 97 +7  1016.9  0.1  741  291  +6.3         
06 24.09.20 140 (ЮВ) 10 км    4/0 верхняя 
[Ci fib]
+11.3 +7.9 80 +12  1016.4  741  285  +6.1        влажная 
09 24.09.20 160 (Ю) 20000 м    3/0 верхняя 
[Ci fib]
+18.9 +7.7 48 +20  1016  0.3  741  278           
12 24.09.20 150 (ЮВ) 20000 м    1/0 верхняя 
[Ci fib]
+21.4 +4.9 34 +21  1015.7  741  276           
15 24.09.20 120 (ЮВ) 20000 м    3/0 верхняя 
[Ci fib]
+16 +8.9 63 +17  1015.9  -0.3  741  280           
18 24.09.20 130 (ЮВ) 10 км    4/0 верхняя 
[Ci fib]
+11.4 +6.2 70 +13  1016.7  0.3  741  286    +21.4       
21 24.09.20 100 (В) 10 км    6/0 верхняя 
[Ci fib]
+7.5 +6.2 91 +8  1017.2  0.1  741  290           
00 25.09.20 110 (В) 10 км    4/0 верхняя 
[Ci fib]
+7.7 +6 89 +9  1016.6  -0.6  741  289           
03 25.09.20 110 (В) 4000 м  дымка  8/0 верхняя 
[Ci]
+6.8 +5.7 93 +8  1016.2  -0.5  740  290  +6.6         
06 25.09.20 100 (В) 10 км    8/0 верхняя 
[Ci fib]
+10.5 +7 79 +11  1015.7  0.1  740  286  +6.6        влажная 
09 25.09.20 100 (В) 10 км    8/0 верхняя 
[Ci fib]
+18.4 +9.4 56 +20  1014.5  -0.4  740  278           
12 25.09.20 120 (ЮВ) 10 км    8/0 верхняя 
[Ci fib]
+21.8 +9.5 45 +23  1012.9  -0.4  739  274           
15 25.09.20 120 (ЮВ) 10 км    10/0 средняя 
[As op]
+18.2 +11.1 63 +23  1013.2  739  277           
18 25.09.20 110 (В) 10 км    9/0 средняя 
[Ac trans]
+17 +10.9 67 +21  1013.6  0.2  739  278    +22.2       
21 25.09.20 110 (В) 10 км    9/0 средняя 
[Ac trans]
+16.2 +10.1 67 +19  1013.7  0.1  739  279           
Время (UTC), дата Ветер
(°,м/с) 
Видим.   Явления Облачность Т
(°С)
Тd
(°С)
f(%) Тe
(°С)
Pmin
(гПа)
dP
(гПа)
Po
(мм)
O2
(г/м3)
Тmin Tmax R s Состояние
почвы

Для получения пояснительной информации подведите курсор к названию столбца.

ПОГОДА в Смоленске - архив

Всё, что Вы хотите узнать о погоде в Смоленске - удобно и подробно!

Выберите нужную дату (начиная с 1 января 2019* года) и нажмите кнопку "Найти".
Будут отображены архивные сводки погоды по пункту Смоленск, начиная с указанной даты.


Отображать данные в формате CSV (для использования в таблицах Excel)


Внимание! Наш архив погоды предназначен исключительно для личного некоммерческого использования в познавательных целях. Если Вам необходимы официальные справки о состоянии погоды (для производственных, юридических, коммерческих и т.п. целей), обращайтесь в органы Росгидромета.

*Примечание: данная дата относится к архиву по метеостанциям СССР (Россия, СНГ, Балтия).
Архив по метеостанциям Зарубежной Европы и Азии (кроме Китая) хранится 10 дней, по другим регионам земного шара (Китай, Африка, Америка, Австралия, Океания) - 1 день.

Смоленск - район местоположения метеостанции


Название, широта, долгота, высота метеостанции:
Смоленск 54.8°ш. 32.1°д. 239 м над ур. моря [Российская Федерация]

Дополнительная информация

В oтличие oт бoльшинства пoгoдных сайтoв мы публикуем пoдрoбную метеoинфoрмацию в детальнoм прoфессиoнальнoм фoрмате.

Характеристики температуры и влажнoсти вoздуха измеряются на высoте 2 м в тени вдали oт зданий и деревьев.
Скoрoсть ветра измеряется на высoте 10 м (на урoвне рoста челoвека скoрoсть ветра ниже в 1.5-2 раза). Если метеoстанция нахoдится в гoрoде или в лесу, тo скoрoсть ветра занижена на 2-4 м/с пo сравнению с oткрытым местoм. Скoрoсть ветра над акватoриями крупных рек и oзёр, а также на вершинах хoлмoв на 2-5 м/с выше, чем в oбычных услoвиях.
Атмoсфернoе давление в разных тoчках местнoсти мoжет значительнo oтличаться oт давления на метеoстанции, в зависимoсти oт услoвий рельефа (при пoдъёме на 10 м давление пoнижается примернo на 1 мм рт.ст.).